Hundvaag 1 weather for Dec 1996
Month no. 114
Obs.
Da.
Temp. Dew Point Precip. Wind
Speed
Wind gusts Cloud cover Press. Humidity Wind dir. Sunny OPT
01.12.1996 -0,2   0,0     0          
02.12.1996 3,4   9,0     0          
03.12.1996 4,8   21,0     0          
04.12.1996 5,4   7,0     0          
05.12.1996 5,2   24,0     0          
06.12.1996 1,8   6,0     7       1  
07.12.1996 1,8   2,0     9       1  
08.12.1996 6,6   2,0     0          
09.12.1996 6,2   1,0     0          
10.12.1996 5,9   0,0     0       1  
11.12.1996 3,1   0,0     0          
12.12.1996 4,5   1,0     0          
13.12.1996 0,7   10,0     10       1  
14.12.1996 0,2   2,0     0          
15.12.1996 -2,6   27,8     3          
16.12.1996 -3,6   0,5     5          
17.12.1996 -0,8   0,0     0          
18.12.1996 3,0   2,0     0          
19.12.1996 -6,0   0,0     10       1  
20.12.1996 -6,1   0,0     10       1  
21.12.1996 0,7   0,0     3       1  
22.12.1996 -1,0   1,0     0          
23.12.1996 -2,5   0,0     2          
24.12.1996 0,1   0,0     1       1  
25.12.1996 -0,3   0,0     0          
26.12.1996 1,6   0,0     0          
27.12.1996 2,4   17,0     1       1  
28.12.1996 -2,4   0,0     1       1  
29.12.1996 3,1   0,0     10       1  
30.12.1996 -3,5   0,0     10       1  
31.12.1996 -3,3   0,0     10       1  
Avrg/Sum 0,9   133,3     3,0       13